Time,TemperatureF,DewpointF,PressureIn,WindDirection,WindDirectionDegrees,WindSpeedMPH,WindSpeedGustMPH,Humidity,HourlyPrecipIn,Conditions,Clouds,dailyrainin,SoftwareType,DateUTC
2013-01-11 00:04:00,27.0,19.0,30.55,NW,323,10.0,18.0,70,0.00,,,0.01,,2013-01-11 05:04:00,
2013-01-11 00:13:00,27.0,19.0,30.55,NW,323,10.0,18.0,70,0.00,,,0.01,,2013-01-11 05:13:00,
2013-01-11 00:23:00,27.0,19.0,30.55,NW,304,9.0,17.0,71,0.00,,,0.01,,2013-01-11 05:23:00,
2013-01-11 00:33:00,27.0,19.0,30.53,West,276,8.0,19.0,71,0.00,,,0.01,,2013-01-11 05:33:00,
2013-01-11 00:43:00,27.0,19.0,30.53,West,276,8.0,19.0,71,0.00,,,0.01,,2013-01-11 05:43:00,
2013-01-11 00:52:00,27.0,19.0,30.53,NW,307,10.0,21.0,71,0.00,,,0.01,,2013-01-11 05:52:00,
2013-01-11 01:03:00,27.0,19.0,30.54,NW,323,9.0,23.0,72,0.00,,,0.01,,2013-01-11 06:03:00,
2013-01-11 01:12:00,27.0,19.0,30.54,NW,323,9.0,23.0,72,0.00,,,0.01,,2013-01-11 06:12:00,
2013-01-11 01:22:00,27.0,19.0,30.54,NNW,328,7.0,20.0,71,0.00,,,0.01,,2013-01-11 06:22:00,
2013-01-11 01:32:00,27.0,19.0,30.54,WNW,303,10.0,15.0,71,0.00,,,0.01,,2013-01-11 06:32:00,
2013-01-11 01:42:00,27.0,19.0,30.54,WNW,303,10.0,15.0,71,0.00,,,0.01,,2013-01-11 06:42:00,
2013-01-11 01:52:00,27.0,19.0,30.54,NW,312,9.0,17.0,71,0.00,,,0.01,,2013-01-11 06:52:00,
2013-01-11 02:02:00,27.0,19.0,30.54,NW,321,9.0,17.0,71,0.00,,,0.01,,2013-01-11 07:02:00,
2013-01-11 02:12:00,27.0,19.0,30.54,NW,321,9.0,17.0,71,0.00,,,0.01,,2013-01-11 07:12:00,
2013-01-11 02:22:00,27.0,19.0,30.53,NW,322,8.0,18.0,71,0.00,,,0.01,,2013-01-11 07:22:00,
2013-01-11 02:32:00,26.0,18.0,30.53,NNW,342,9.0,19.0,71,0.00,,,0.01,,2013-01-11 07:32:00,
2013-01-11 02:42:00,26.0,18.0,30.53,NNW,345,8.0,20.0,71,0.00,,,0.01,,2013-01-11 07:42:00,
2013-01-11 02:52:00,26.0,18.0,30.53,NNW,345,8.0,20.0,71,0.00,,,0.01,,2013-01-11 07:52:00,
2013-01-11 03:02:00,26.0,18.0,30.54,NNW,343,11.0,20.0,71,0.00,,,0.01,,2013-01-11 08:02:00,
2013-01-11 03:12:00,26.0,19.0,30.53,NW,321,8.0,18.0,73,0.00,,,0.01,,2013-01-11 08:12:00,
2013-01-11 03:22:00,26.0,19.0,30.53,NW,321,8.0,18.0,73,0.00,,,0.01,,2013-01-11 08:22:00,
2013-01-11 03:32:00,25.0,18.0,30.52,NNW,343,10.0,18.0,73,0.00,,,0.01,,2013-01-11 08:32:00,
2013-01-11 03:42:00,25.0,18.0,30.52,NNW,343,10.0,18.0,73,0.00,,,0.01,,2013-01-11 08:42:00,
2013-01-11 03:52:00,25.0,18.0,30.52,WNW,301,8.0,16.0,73,0.00,,,0.01,,2013-01-11 08:52:00,
2013-01-11 04:02:00,25.0,18.0,30.53,WNW,298,8.0,19.0,74,0.00,,,0.01,,2013-01-11 09:02:00,
2013-01-11 04:12:00,25.0,18.0,30.53,WNW,298,8.0,19.0,74,0.00,,,0.01,,2013-01-11 09:12:00,
2013-01-11 04:23:00,25.0,18.0,30.53,NNE,17,8.0,15.0,74,0.00,,,0.01,,2013-01-11 09:23:00,
2013-01-11 04:32:00,25.0,18.0,30.53,NNE,17,8.0,15.0,74,0.00,,,0.01,,2013-01-11 09:32:00,
2013-01-11 04:42:00,25.0,18.0,30.53,NNE,17,8.0,15.0,74,0.00,,,0.01,,2013-01-11 09:42:00,
2013-01-11 04:52:00,24.0,18.0,30.52,NNW,332,5.0,15.0,76,0.00,,,0.01,,2013-01-11 09:52:00,
2013-01-11 05:02:00,23.0,17.0,30.51,WNW,290,6.0,14.0,77,0.00,,,0.01,,2013-01-11 10:02:00,
2013-01-11 05:12:00,23.0,17.0,30.51,WNW,290,6.0,14.0,77,0.00,,,0.01,,2013-01-11 10:12:00,
2013-01-11 05:22:00,23.0,17.0,30.51,NW,320,7.0,12.0,78,0.00,,,0.01,,2013-01-11 10:22:00,
2013-01-11 05:32:00,23.0,17.0,30.51,NW,320,7.0,12.0,78,0.00,,,0.01,,2013-01-11 10:32:00,
2013-01-11 05:42:00,23.0,17.0,30.51,NW,320,7.0,12.0,78,0.00,,,0.01,,2013-01-11 10:42:00,
2013-01-11 05:52:00,23.0,17.0,30.51,NNW,339,6.0,13.0,78,0.00,,,0.01,,2013-01-11 10:52:00,
2013-01-11 06:03:00,23.0,17.0,30.51,NW,326,7.0,15.0,78,0.00,,,0.01,,2013-01-11 11:03:00,
2013-01-11 06:12:00,23.0,17.0,30.51,NW,326,7.0,15.0,78,0.00,,,0.01,,2013-01-11 11:12:00,
2013-01-11 06:22:00,23.0,17.0,30.52,WNW,303,6.0,17.0,78,0.00,,,0.01,,2013-01-11 11:22:00,
2013-01-11 06:33:00,23.0,17.0,30.53,NNW,344,5.0,14.0,78,0.00,,,0.00,,2013-01-11 11:33:00,
2013-01-11 06:43:00,23.0,17.0,30.53,NNW,344,5.0,14.0,78,0.00,,,0.00,,2013-01-11 11:43:00,
2013-01-11 06:53:00,23.0,17.0,30.53,NNW,344,5.0,10.0,78,0.00,,,0.00,,2013-01-11 11:53:00,
2013-01-11 07:03:00,23.0,17.0,30.53,NW,313,4.0,13.0,79,0.00,,,0.00,,2013-01-11 12:03:00,
2013-01-11 07:12:00,23.0,17.0,30.53,NW,313,4.0,13.0,79,0.00,,,0.00,,2013-01-11 12:12:00,
2013-01-11 07:22:00,23.0,17.0,30.53,NW,313,4.0,13.0,79,0.00,,,0.00,,2013-01-11 12:22:00,
2013-01-11 07:33:00,23.0,17.0,30.55,NNW,337,4.0,9.0,79,0.00,,,0.00,,2013-01-11 12:33:00,
2013-01-11 07:43:00,23.0,17.0,30.55,NNW,337,4.0,9.0,79,0.00,,,0.00,,2013-01-11 12:43:00,
2013-01-11 07:53:00,23.0,17.0,30.56,NW,317,4.0,9.0,79,0.00,,,0.00,,2013-01-11 12:53:00,
2013-01-11 08:03:00,23.0,17.0,30.57,NNW,330,6.0,10.0,78,0.00,,,0.00,,2013-01-11 13:03:00,
2013-01-11 08:13:00,23.0,17.0,30.57,NNW,330,6.0,10.0,78,0.00,,,0.00,,2013-01-11 13:13:00,
2013-01-11 08:22:00,23.0,17.0,30.58,NNW,338,3.0,8.0,78,0.00,,,0.00,,2013-01-11 13:22:00,
2013-01-11 08:33:00,24.0,18.0,30.58,NW,324,3.0,8.0,77,0.00,,,0.00,,2013-01-11 13:33:00,
2013-01-11 08:43:00,24.0,18.0,30.58,NW,324,3.0,8.0,77,0.00,,,0.00,,2013-01-11 13:43:00,
2013-01-11 08:52:00,24.0,18.0,30.57,NNW,339,3.0,7.0,76,0.00,,,0.00,,2013-01-11 13:52:00,
2013-01-11 09:03:00,24.0,17.0,30.58,NNW,332,5.0,9.0,75,0.00,,,0.00,,2013-01-11 14:03:00,
2013-01-11 09:12:00,24.0,17.0,30.58,NNW,332,5.0,9.0,75,0.00,,,0.00,,2013-01-11 14:12:00,
2013-01-11 09:23:00,25.0,18.0,30.57,North,359,4.0,9.0,74,0.00,,,0.00,,2013-01-11 14:23:00,
2013-01-11 09:33:00,25.0,18.0,30.57,NNW,328,3.0,7.0,73,0.00,,,0.00,,2013-01-11 14:33:00,
2013-01-11 09:43:00,26.0,18.0,30.57,ENE,64,2.0,5.0,71,0.00,,,0.00,,2013-01-11 14:43:00,
2013-01-11 09:53:00,26.0,18.0,30.57,ENE,64,2.0,5.0,71,0.00,,,0.00,,2013-01-11 14:53:00,
2013-01-11 10:03:00,27.0,18.0,30.56,NE,43,2.0,7.0,68,0.00,,,0.00,,2013-01-11 15:03:00,
2013-01-11 10:13:00,28.0,18.0,30.56,ESE,104,2.0,7.0,67,0.00,,,0.00,,2013-01-11 15:13:00,
2013-01-11 10:23:00,28.0,18.0,30.56,ESE,104,2.0,7.0,67,0.00,,,0.00,,2013-01-11 15:23:00,
2013-01-11 10:33:00,28.0,17.0,30.55,NE,51,5.0,10.0,63,0.00,,,0.00,,2013-01-11 15:33:00,
2013-01-11 10:43:00,28.0,17.0,30.55,NE,51,5.0,10.0,63,0.00,,,0.00,,2013-01-11 15:43:00,
2013-01-11 10:52:00,30.0,19.0,30.54,SE,139,2.0,6.0,62,0.00,,,0.00,,2013-01-11 15:52:00,
2013-01-11 11:03:00,30.0,18.0,30.53,ENE,65,3.0,7.0,60,0.00,,,0.00,,2013-01-11 16:03:00,
2013-01-11 11:12:00,30.0,18.0,30.52,ESE,108,3.0,8.0,60,0.00,,,0.00,,2013-01-11 16:12:00,
2013-01-11 11:23:00,30.0,18.0,30.52,ESE,108,3.0,8.0,60,0.00,,,0.00,,2013-01-11 16:23:00,
2013-01-11 11:33:00,30.0,17.0,30.51,ESE,112,3.0,5.0,58,0.00,,,0.00,,2013-01-11 16:33:00,
2013-01-11 11:43:00,30.0,17.0,30.51,ESE,112,3.0,5.0,58,0.00,,,0.00,,2013-01-11 16:43:00,
2013-01-11 11:53:00,30.0,17.0,30.50,SE,132,2.0,5.0,58,0.00,,,0.00,,2013-01-11 16:53:00,
2013-01-11 12:03:00,30.0,17.0,30.48,ESE,118,3.0,6.0,58,0.00,,,0.00,,2013-01-11 17:03:00,
2013-01-11 12:12:00,30.0,17.0,30.48,ESE,118,3.0,6.0,58,0.00,,,0.00,,2013-01-11 17:12:00,
2013-01-11 12:22:00,31.0,18.0,30.47,ESE,117,6.0,10.0,57,0.00,,,0.00,,2013-01-11 17:22:00,
2013-01-11 12:33:00,31.0,17.0,30.46,East,93,2.0,9.0,56,0.00,,,0.00,,2013-01-11 17:33:00,
2013-01-11 12:43:00,31.0,17.0,30.46,East,93,2.0,9.0,56,0.00,,,0.00,,2013-01-11 17:43:00,
2013-01-11 12:53:00,31.0,17.0,30.46,ESE,118,3.0,7.0,55,0.00,,,0.00,,2013-01-11 17:53:00,
2013-01-11 13:04:00,32.0,17.0,30.46,ESE,116,3.0,5.0,53,0.00,,,0.00,,2013-01-11 18:04:00,
2013-01-11 13:13:00,32.0,17.0,30.46,ESE,116,3.0,5.0,53,0.00,,,0.00,,2013-01-11 18:13:00,
2013-01-11 13:23:00,32.0,16.0,30.46,ESE,115,1.0,6.0,52,0.00,,,0.00,,2013-01-11 18:23:00,
2013-01-11 13:33:00,32.0,16.0,30.45,SE,124,1.0,3.0,52,0.00,,,0.00,,2013-01-11 18:33:00,
2013-01-11 13:43:00,32.0,16.0,30.45,SE,124,1.0,3.0,52,0.00,,,0.00,,2013-01-11 18:43:00,
2013-01-11 13:53:00,33.0,17.0,30.46,ESE,123,0.0,2.0,51,0.00,,,0.00,,2013-01-11 18:53:00,
2013-01-11 14:03:00,33.0,17.0,30.45,SE,132,0.0,3.0,51,0.00,,,0.00,,2013-01-11 19:03:00,
2013-01-11 14:12:00,33.0,17.0,30.45,SE,132,0.0,3.0,51,0.00,,,0.00,,2013-01-11 19:12:00,
2013-01-11 14:22:00,33.0,17.0,30.45,SE,135,0.0,4.0,51,0.00,,,0.00,,2013-01-11 19:22:00,
2013-01-11 14:33:00,33.0,17.0,30.44,ESE,122,1.0,4.0,51,0.00,,,0.00,,2013-01-11 19:33:00,
2013-01-11 14:43:00,33.0,17.0,30.44,ESE,122,1.0,4.0,51,0.00,,,0.00,,2013-01-11 19:43:00,
2013-01-11 14:53:00,33.0,17.0,30.43,SE,125,1.0,4.0,51,0.00,,,0.00,,2013-01-11 19:53:00,
2013-01-11 15:03:00,33.0,17.0,30.43,SE,125,1.0,3.0,51,0.00,,,0.00,,2013-01-11 20:03:00,
2013-01-11 15:12:00,33.0,17.0,30.43,SE,125,1.0,3.0,51,0.00,,,0.00,,2013-01-11 20:12:00,
2013-01-11 15:22:00,33.0,17.0,30.43,SE,125,1.0,3.0,51,0.00,,,0.00,,2013-01-11 20:22:00,
2013-01-11 15:33:00,33.0,17.0,30.43,SE,125,1.0,3.0,51,0.00,,,0.00,,2013-01-11 20:33:00,
2013-01-11 15:53:00,33.0,17.0,30.42,SW,222,0.0,1.0,51,0.00,,,0.00,,2013-01-11 20:53:00,
2013-01-11 16:03:00,33.0,17.0,30.40,SW,223,0.0,2.0,52,0.00,,,0.00,,2013-01-11 21:03:00,
2013-01-11 16:13:00,33.0,17.0,30.40,SW,223,0.0,2.0,52,0.00,,,0.00,,2013-01-11 21:13:00,
2013-01-11 16:23:00,33.0,17.0,30.40,SW,222,1.0,3.0,52,0.00,,,0.00,,2013-01-11 21:23:00,
2013-01-11 16:33:00,33.0,18.0,30.40,SW,223,0.0,2.0,53,0.00,,,0.00,,2013-01-11 21:33:00,
2013-01-11 16:42:00,33.0,18.0,30.40,SW,223,0.0,2.0,53,0.00,,,0.00,,2013-01-11 21:42:00,
2013-01-11 16:52:00,32.0,17.0,30.40,SW,222,1.0,3.0,54,0.00,,,0.00,,2013-01-11 21:52:00,
2013-01-11 17:03:00,32.0,18.0,30.40,SW,219,0.0,3.0,55,0.00,,,0.00,,2013-01-11 22:03:00,
2013-01-11 17:12:00,32.0,18.0,30.40,SW,219,0.0,3.0,55,0.00,,,0.00,,2013-01-11 22:12:00,
2013-01-11 17:23:00,32.0,18.0,30.39,SW,219,0.0,3.0,56,0.00,,,0.00,,2013-01-11 22:23:00,
2013-01-11 17:33:00,32.0,19.0,30.38,SW,219,1.0,3.0,57,0.00,,,0.00,,2013-01-11 22:33:00,
2013-01-11 17:42:00,32.0,19.0,30.38,SW,219,1.0,3.0,57,0.00,,,0.00,,2013-01-11 22:42:00,
2013-01-11 17:52:00,32.0,19.0,30.38,SW,219,0.0,3.0,58,0.00,,,0.00,,2013-01-11 22:52:00,
2013-01-11 18:02:00,31.0,18.0,30.37,SW,219,1.0,3.0,59,0.00,,,0.00,,2013-01-11 23:02:00,
2013-01-11 18:13:00,31.0,18.0,30.37,SW,219,1.0,3.0,59,0.00,,,0.00,,2013-01-11 23:13:00,
2013-01-11 18:23:00,31.0,18.0,30.38,SW,219,1.0,3.0,59,0.00,,,0.00,,2013-01-11 23:23:00,
2013-01-11 18:33:00,31.0,19.0,30.39,SW,216,0.0,3.0,60,0.00,,,0.00,,2013-01-11 23:33:00,
2013-01-11 18:43:00,31.0,19.0,30.39,SW,216,0.0,3.0,60,0.00,,,0.00,,2013-01-11 23:43:00,
2013-01-11 18:53:00,31.0,19.0,30.40,SW,225,1.0,4.0,61,0.00,,,0.00,,2013-01-11 23:53:00,
2013-01-11 19:03:00,31.0,20.0,30.40,West,274,2.0,7.0,62,0.00,,,0.00,,2013-01-12 00:03:00,
2013-01-11 19:12:00,31.0,20.0,30.40,SW,229,2.0,7.0,64,0.00,,,0.00,,2013-01-12 00:12:00,
2013-01-11 19:23:00,31.0,20.0,30.40,SW,229,2.0,7.0,64,0.00,,,0.00,,2013-01-12 00:23:00,
2013-01-11 19:33:00,30.0,20.0,30.39,SSE,149,2.0,5.0,66,0.00,,,0.00,,2013-01-12 00:33:00,
2013-01-11 19:43:00,30.0,20.0,30.39,SSE,149,2.0,5.0,66,0.00,,,0.00,,2013-01-12 00:43:00,
2013-01-11 19:52:00,30.0,20.0,30.39,SSE,149,3.0,4.0,67,0.00,,,0.00,,2013-01-12 00:52:00,
2013-01-11 20:03:00,30.0,21.0,30.39,SE,144,3.0,6.0,68,0.00,,,0.00,,2013-01-12 01:03:00,
2013-01-11 20:12:00,30.0,21.0,30.39,SE,144,3.0,6.0,68,0.00,,,0.00,,2013-01-12 01:12:00,
2013-01-11 20:22:00,30.0,21.0,30.39,SE,144,2.0,5.0,68,0.00,,,0.00,,2013-01-12 01:22:00,
2013-01-11 20:33:00,30.0,21.0,30.37,SE,142,3.0,6.0,69,0.00,,,0.00,,2013-01-12 01:33:00,
2013-01-11 20:43:00,30.0,21.0,30.37,SE,142,3.0,6.0,69,0.00,,,0.00,,2013-01-12 01:43:00,
2013-01-11 20:52:00,30.0,21.0,30.37,SE,139,2.0,6.0,70,0.00,,,0.00,,2013-01-12 01:52:00,
2013-01-11 21:02:00,30.0,21.0,30.37,SE,143,1.0,5.0,70,0.00,,,0.00,,2013-01-12 02:02:00,
2013-01-11 21:12:00,30.0,21.0,30.37,SE,143,1.0,5.0,70,0.00,,,0.00,,2013-01-12 02:12:00,
2013-01-11 21:22:00,30.0,21.0,30.37,SE,143,1.0,4.0,70,0.00,,,0.00,,2013-01-12 02:22:00,
2013-01-11 21:33:00,30.0,21.0,30.37,SE,141,1.0,6.0,70,0.00,,,0.00,,2013-01-12 02:33:00,
2013-01-11 21:43:00,30.0,21.0,30.37,SE,141,1.0,6.0,70,0.00,,,0.00,,2013-01-12 02:43:00,
2013-01-11 21:53:00,30.0,22.0,30.36,SE,137,3.0,5.0,71,0.00,,,0.00,,2013-01-12 02:53:00,
2013-01-11 22:03:00,30.0,22.0,30.36,SE,143,4.0,7.0,71,0.00,,,0.00,,2013-01-12 03:03:00,
2013-01-11 22:12:00,30.0,22.0,30.36,SE,143,4.0,7.0,71,0.00,,,0.00,,2013-01-12 03:12:00,
2013-01-11 22:22:00,30.0,22.0,30.35,SE,143,5.0,7.0,72,0.00,,,0.00,,2013-01-12 03:22:00,
2013-01-11 22:33:00,30.0,22.0,30.35,SE,129,5.0,8.0,71,0.00,,,0.00,,2013-01-12 03:33:00,
2013-01-11 22:43:00,30.0,22.0,30.35,SE,129,5.0,8.0,71,0.00,,,0.00,,2013-01-12 03:43:00,
2013-01-11 22:53:00,30.0,22.0,30.35,SE,133,5.0,7.0,71,0.00,,,0.00,,2013-01-12 03:53:00,
2013-01-11 23:02:00,30.0,22.0,30.34,SSE,148,4.0,7.0,71,0.00,,,0.00,,2013-01-12 04:02:00,
2013-01-11 23:12:00,30.0,22.0,30.34,SSE,148,4.0,7.0,71,0.00,,,0.00,,2013-01-12 04:12:00,
2013-01-11 23:22:00,30.0,22.0,30.34,SSE,147,2.0,7.0,72,0.00,,,0.00,,2013-01-12 04:22:00,
2013-01-11 23:32:00,30.0,22.0,30.33,SE,139,4.0,6.0,72,0.00,,,0.00,,2013-01-12 04:32:00,
2013-01-11 23:42:00,30.0,22.0,30.33,SE,139,4.0,6.0,72,0.00,,,0.00,,2013-01-12 04:42:00,
2013-01-11 23:52:00,30.0,22.0,30.33,SE,135,4.0,6.0,73,0.00,,,0.00,,2013-01-12 04:52:00,